{"data":{"norad_id":58154,"intl_designator":"2023-166E","name":"STARLINK-30797","alt_names":[],"object_type":"PAYLOAD","status":"ACTIVE","operator":null,"country":"US","launch_date":"2023-10-29","launch_site_code":"AFWTR","launch_vehicle":null,"mission":null,"orbit_class":"UNKNOWN","rcs_meters":null,"size_class":null,"mass_kg":null,"dimensions":null,"purposes":["comms"],"wikipedia_slug":null,"has_3d_model":false,"image_url":null,"decayed_at":null,"tle_current":{"epoch":"2026-09-20T14:22:18.403104Z","epoch_age_seconds":131876,"freshness":"FRESH","line1":"1 58154U 23166E   26263.59882411 -.00000756  00000+0 -11260-4 0  9991","line2":"2 58154  53.1605  33.1457 0001199  89.6343 270.4797 15.34391635162882","mean_motion":15.34391635,"eccentricity":0.0001199,"inclination_deg":53.1605,"raan_deg":33.1457,"arg_perigee_deg":89.6343,"mean_anomaly_deg":270.4797,"bstar":-1.126e-5,"rev_number":16288,"period_min":93.848269708535,"perigee_km":461.90788313707,"apogee_km":463.54832258873,"semimajor_km":6840.8651028629,"source":"CELESTRAK","updated_at":"2026-09-21T09:00:33.796208Z"}}}